Regional Weather Roundup
Issued by NWS

Home | Current Version | Previous Version | Text Only | Print | Product List | Glossary Off
Versions: 1 2 3 4 5 6 7 8 9 10 11 12 13 14 15 16 17 18 19 20 21 22 23 24 25 26 27 28 29 30 31 32 33 34 35 36 37 38 39 40 41 42 43 44 45 46 47 48 49 50

000
ASUS43 KDMX 221701
RWRIA

WEATHER ROUNDUP FOR IOWA
NATIONAL WEATHER SERVICE DES MOINES IA
1200 PM CDT MON MAY 22 2017

NOTE: "FAIR" INDICATES FEW OR NO CLOUDS BELOW 12,000 FEET WITH NO
SIGNIFICANT WEATHER AND/OR OBSTRUCTIONS TO VISIBILITY.

* - THESE STATIONS ARE NOT NWS STATIONS...THUS NOT UNDER NWS
QUALITY CONTROL.  THEY ALSO DO NOT REPORT WEATHER SUCH
AS PRECIPITATION OR FOG.

IAZ001>003-012>014-020>022-031>034-043>046-221800-
   NORTHWEST IOWA

CITY           SKY/WX    TMP DP  RH WIND       PRES   REMARKS
CARROLL *      SUNNY     68  52  56 W15G21    29.89F
CHEROKEE *     SUNNY     66  51  58 W9        29.87F
DENISON *      SUNNY     68  52  56 W12       29.91F
LE MARS *      SUNNY     66  52  59 NW12      29.89F
ORANGE CITY *  SUNNY     64  52  63 W12       29.88S
SHELDON *        N/A     64  54  68 W10         N/A
SIOUX CITY     SUNNY     69  51  52 W13       29.89F
SPENCER        SUNNY     66  52  60 W12       29.87F
STORM LAKE *   SUNNY     64  50  59 SW12G18   29.88F
$$

IAZ055>058-069>071-079>083-090>094-221800-
   SOUTHWEST IOWA

CITY           SKY/WX    TMP DP  RH WIND       PRES   REMARKS
ATLANTIC *     MOSUNNY   66  54  63 SW13G21   29.92F
AUDUBON *      CLOUDY    68  52  56 W8G17     29.92S
CLARINDA *     PTSUNNY   64  57  77 SW14G21   29.99S
COUNCIL BLFS * MOSUNNY   66  52  59 SW9       29.93S
CRESTON *      CLOUDY    63  54  72 SW13G20   29.97R
HARLAN  *      SUNNY     68  48  49 W18       29.95S
LAMONI         CLOUDY    63  56  78 SW17      29.97S
RED OAK *      CLOUDY    66  55  68 SW13      29.95S
SHENANDOAH *   PTSUNNY   66  55  68 SW16      29.96F
$$

IAZ047>049-059>061-072>074-084-221800-
   CENTRAL IOWA

CITY           SKY/WX    TMP DP  RH WIND       PRES   REMARKS
AMES           SUNNY     68  55  63 W15       29.89S
ANKENY *       MOSUNNY   68  54  60 SW9G17    29.91F
BOONE *        SUNNY     68  52  56 SW15      29.88F
DES MOINES     CLOUDY    67  53  61 SW14      29.90F
GRINNELL*      MOSUNNY   65  52  61 SW15G25   29.93S
MARSHALLTOWN   MOSUNNY   67  54  63 SW14      29.88F
NEWTON *       CLOUDY    66  52  59 SW20      29.90F
PELLA *        CLOUDY    64  52  63 SW12      29.94F
PERRY *          N/A     68  53  59 W13       29.90F
$$

IAZ004>006-015-016-023>025-035-036-221800-
   NORTH CENTRAL IOWA

CITY           SKY/WX    TMP DP  RH WIND       PRES   REMARKS
ALGONA *       SUNNY     64  54  68 NW5       29.88S
CLARION *      SUNNY     64  55  72 W10       29.88S
ESTHERVILLE    SUNNY     63  48  58 CALM      29.86F
FORT DODGE *   SUNNY     68  54  60 W8        29.88F
MASON CITY     PTSUNNY   63  51  65 W6        29.89F
FOREST CITY *    N/A     68  43  40 CALM      29.88S
WEBSTER CITY * SUNNY     66  54  63 W12       29.87S
IOWA FALLS *     N/A     66  54  66 SW14      29.89F
$$

IAZ007>011-017>019-026>030-037>042-050>054-066-221800-
   NORTHEAST IOWA

CITY           SKY/WX    TMP DP  RH WIND       PRES   REMARKS
CEDAR RAPIDS   PTSUNNY   65  53  65 SW14      29.90F
CHARLES CITY * MOSUNNY   63  55  77 W13       29.89S
CLINTON *      PTSUNNY   68  51  54 SW15G24   29.95F
DECORAH *      MOSUNNY   57  50  77 VRB5      29.88F
DUBUQUE        RAIN      54  50  86 CALM      29.94F FOG
MONTICELLO *   CLOUDY    57  50  77 NE5       29.93F
OELWEIN *      SUNNY     61  54  77 S17       29.90F
WATERLOO       SUNNY     64  52  64 S14       29.88F
$$

IAZ064-065-067-068-078-221800-
   EAST CENTRAL IOWA

CITY           SKY/WX    TMP DP  RH WIND       PRES   REMARKS
DAVENPORT      PTSUNNY   68  49  50 S18G25    29.95F
IOWA CITY      CLOUDY    70  50  49 SW20G29   29.93F
MT. PLEASANT * RAIN      64  51  62 SW21G26   29.98S
MUSCATINE *    PTSUNNY   70  50  49 SW15G25   29.95F
QUAD CITIES    MOSUNNY   73  49  42 SW16G24   29.95F
$$

IAZ062-063-075>077-085>089-095>099-221800-
   SOUTHEAST IOWA

CITY           SKY/WX    TMP DP  RH WIND       PRES   REMARKS
BURLINGTON     MOSUNNY   71  53  52 SW18G25   29.97F
FAIRFIELD *    CLOUDY    63  52  67 S16G23    29.97R
FORT MADISON * PTSUNNY   70  54  56 SW10G16   30.00S
KEOKUK *       PTSUNNY   68  52  56 SW9G16    29.99S
OSKALOOSA *      N/A     65  53  65 SW22G31   29.94F
OTTUMWA        CLOUDY    64  53  67 SW18G25   29.95S
WASHINGTON *   CLOUDY    68  52  56 SW23G30   29.95F
$$

ABBREVIATIONS USED IN REMARKS
   TC - TEMPERATURES IN CELSIUS
  WCI - WIND CHILL INDEX
   HX - HEAT INDEX
  VSB - VISIBILITY
$$





USA.gov is the U.S. government's official web portal to all federal, state and local government web resources and services.